Home   Weather   Turaif   Past weeks

Flag for Saudi Arabia Past Weather in Turaif, Saudi Arabia — Yesterday and Last 2 Weeks

Now
86 °F

Clear.


Feels Like: 84 °F
Forecast: 74 / 99 °F
Wind: 9 mph from Northwest

Location: Turaif

Current Time: Aug 16, 2017 at 11:01:07 pm

Latest Report: Aug 16, 2017 at 10:00 pm


Visibility: 10 mi

Pressure: 29.74 "Hg (27.09 "Hg at 827m altitude)

Humidity: 29%

Dew Point: 50 °F

Location of TuraifLocation

Past Weather in Turaif — Graph

°F

Turaif Temperature Yesterday

Maximum temperature yesterday: 102 °F (at 5:00 pm)
Minimum temperature yesterday: 75 °F (at 5:00 am)
Average temperature yesterday: 89 °F

High & Low Weather Summary for the Past Weeks

 TemperatureHumidityPressure
High111 °F (Aug 9, 2:00 pm)61% (Aug 4, 5:00 am)29.95 "Hg (Aug 4, 5:00 am)
Low72 °F (Aug 3, 5:00 am)8% (Aug 2, 5:00 pm)29.68 "Hg (Aug 16, 4:00 pm)
Average91 °F24%29.83 "Hg
* Reported Aug 1 9:00 pm — Aug 16 9:00 pm, Turaif. Weather by CustomWeather, © 2017

Note: Actual official high and low records may vary slightly from our data, if they occured in-between our weather recording intervals... More about our weather records

Advertising

Turaif Weather History for the Previous 24 Hours

Scroll right to see more
 ConditionsComfort  
Time TempWeatherWind HumidityBarometerVisibility
9:00 pm
Wed, Aug 16
90 °FClear.12 mph26%29.74 "Hg10 mi
8:00 pm93 °FSunny.14 mph23%29.71 "Hg10 mi
7:00 pm97 °FSunny.13 mph19%29.68 "Hg10 mi
6:00 pm100 °FSunny.13 mph17%29.68 "Hg10 mi
5:00 pm102 °FSunny.12 mph20%29.68 "Hg10 mi
4:00 pm102 °FSunny.12 mph20%29.68 "Hg10 mi
3:00 pm104 °FSunny.16 mph17%29.71 "Hg10 mi
2:00 pm106 °FSunny.9 mph18%29.71 "Hg10 mi
1:00 pm104 °FSunny.7 mph19%29.74 "Hg10 mi
12:00 pm102 °FSunny.5 mph18%29.74 "Hg10 mi
11:00 am97 °FSunny.7 mph23%29.74 "Hg10 mi
10:00 am93 °FSunny.9 mph26%29.77 "Hg10 mi
9:00 am88 °FSunny.7 mph33%29.77 "Hg10 mi
8:00 am84 °FSunny.9 mph40%29.77 "Hg10 mi
7:00 am77 °FSunny.7 mph51%29.74 "Hg10 mi
6:00 am75 °FClear.6 mph54%29.74 "Hg10 mi
5:00 am75 °FClear.5 mph54%29.74 "Hg10 mi
4:00 am77 °FClear.9 mph51%29.74 "Hg10 mi
3:00 am79 °FClear.8 mph45%29.74 "Hg10 mi
2:00 am81 °FClear.7 mph39%29.74 "Hg10 mi
1:00 am82 °FClear.9 mph32%29.77 "Hg10 mi
12:00 am84 °FClear.9 mph31%29.77 "Hg10 mi
11:00 pm
Tue, Aug 15
84 °FClear.7 mph31%29.77 "Hg10 mi
Weather by CustomWeather, © 2017

See weather overviewHow to use our weather pages